Location: Aldenham
(51.6667°N, 0.3500°W)
Time: 16:57:58
(UTC+00:00)

Cosmos 2297 Rocket - Pass Details

Date: 18 November 2025
Orbit: 837 x 844 km, 71.0° (Epoch: 12 December)

Event Time Altitude Azimuth Distance (km) Brightness Sun altitude
Rises 16:40:09 0° 302° (WNW) 3,405 5.9 -5.3°
Reaches altitude 10° 16:45:02 10° 339° (NNW) 2,473 4.6 -6.0°
Maximum altitude 16:46:22 11° 353° (N) 2,419 4.4 -6.2°
Drops below altitude 10° 16:47:43 10° 7° (N) 2,474 4.3 -6.4°
Enters shadow 16:51:13 - 36° (NE) 3,062 4.6 -6.9°
